This is the latest recevied weather packets stored in our database for station/object KC0UFP. If no packets are shown the sender has not sent any weather packets the latest 10 day(s).
| Time | Temp. | Humidity | Pressure | Rain* | Wind** | Luminosity | Snow |
|---|---|---|---|---|---|---|---|
| 1778032169 | 12.78° C | 99% | 1007.1 hPa | 1.27 mm | - | 0 W/m² | - |
| 1778031866 | 13.33° C | 99% | 1007.2 hPa | 4.32 mm | - | 0 W/m² | - |
| 1778031562 | 13.33° C | 99% | 1006.9 hPa | 3.56 mm | - | 0 W/m² | - |
| 1778031260 | 13.33° C | 99% | 1006.9 hPa | 0.51 mm | - | 0 W/m² | - |
| 1778030956 | 15° C | 99% | 1006.8 hPa | 0 mm | - | 0 W/m² | - |
| 1778030653 | 15° C | 99% | 1006.1 hPa | 0 mm | - | 0 W/m² | - |
| 1778030350 | 18.89° C | 99% | 1005.9 hPa | 0 mm | - | 0 W/m² | - |
| 1778030047 | 18.89° C | 99% | 1005.5 hPa | 0 mm | - | 0 W/m² | - |
| 1778029744 | 18.89° C | 99% | 1005.3 hPa | 0 mm | - | 0 W/m² | - |
| 1778029442 | 18.89° C | 99% | 1005.5 hPa | 0 mm | - | 0 W/m² | - |
| 1778029139 | 18.89° C | 99% | 1005.5 hPa | 0.51 mm | - | 0 W/m² | - |
| 1778028836 | 18.89° C | 99% | 1005.2 hPa | 0.51 mm | - | 0 W/m² | - |
| 1778028531 | 18.89° C | 99% | 1005.6 hPa | 0 mm | - | 1 W/m² | - |
| 1778028230 | 18.89° C | 99% | 1005.5 hPa | 0.51 mm | - | 1 W/m² | - |
| 1778027925 | 18.89° C | 99% | 1005.5 hPa | 0.51 mm | - | 2 W/m² | - |
| 1778027622 | 18.89° C | 99% | 1005.3 hPa | 0 mm | - | 6 W/m² | - |
| 1778027318 | 18.89° C | 99% | 1005.3 hPa | 0 mm | - | 4 W/m² | - |
| 1778027015 | 18.89° C | 99% | 1005.3 hPa | 0 mm | - | 5 W/m² | - |
| 1778026710 | 18.89° C | 99% | 1005.2 hPa | 0 mm | - | 9 W/m² | - |
| 1778026408 | 18.89° C | 99% | 1005 hPa | 0 mm | - | 9 W/m² | - |
| 1778026104 | 18.89° C | 99% | 1004.9 hPa | 0 mm | - | 12 W/m² | - |
| 1778025802 | 18.33° C | 99% | 1005.3 hPa | 0 mm | - | 12 W/m² | - |
| 1778025499 | 18.33° C | 99% | 1005.1 hPa | 0 mm | - | 15 W/m² | - |
| 1778025196 | 18.33° C | 99% | 1005.2 hPa | 0.51 mm | - | 19 W/m² | - |
| 1778024893 | 18.33° C | 99% | 1005.4 hPa | 1.27 mm | - | 21 W/m² | - |
* Rain latest hour (hover to see other rain measurements)
** Current wind speed in m/s (hover to see current wind gust speed)